FW0858 Weather Reports


time (UTC)temp
F
wind
direction
speed
knots
gust
knots
rain 1hr
in
rain 24hr
in
rain mn
in
humidity
%
barometer
mb
20260506144903 59 233 10.4 20.0 0.00 0.00 0.00 89 1009.9
20260506144403 59 215 9.6 19.1 0.00 0.00 0.00 90 1010.1
20260506143805 59 221 9.6 19.1 0.00 0.00 0.00 89 1010.2
20260506142806 59 252 8.7 17.4 0.00 0.00 0.00 89 1010.5
20260506142306 59 242 8.7 17.4 0.00 0.00 0.00 89 1010.6
20260506141806 60 250 8.7 16.5 0.00 0.00 0.00 89 1010.6
20260506141303 60 241 9.6 16.5 0.00 0.00 0.00 89 1010.6
20260506140123 60 238 9.6 16.5 0.00 0.00 0.00 90 1010.5
20260506135623 59 250 9.6 15.6 0.00 0.00 0.00 89 1010.6
20260506135057 59 231 9.6 17.4 0.00 0.00 0.00 89 1010.7
20260506134056 59 231 9.6 18.2 0.00 0.00 0.00 89 1010.8
20260506133423 59 243 9.6 18.2 0.00 0.00 0.00 89 1010.8
20260506132852 59 238 10.4 18.2 0.00 0.00 0.00 89 1010.7
20260506132336 59 229 9.6 17.4 0.00 0.00 0.00 89 1010.6
20260506131828 59 236 8.7 17.4 0.00 0.00 0.00 90 1010.7
20260506131308 59 245 8.7 14.8 0.00 0.00 0.00 90 1010.6
20260506130657 58 236 8.7 14.8 0.00 0.00 0.00 90 1010.5
20260506130151 58 214 8.7 14.8 0.00 0.00 0.00 90 1010.5
20260506125649 58 239 9.6 18.2 0.00 0.00 0.00 90 1010.6
20260506125149 58 218 9.6 18.2 0.00 0.00 0.00 89 1010.4
20260506124649 59 268 8.7 18.2 0.00 0.00 0.00 90 1010.5
20260506124149 59 224 8.7 18.2 0.00 0.00 0.00 89 1010.7
20260506123649 59 234 8.7 17.4 0.00 0.00 0.00 89 1010.7
20260506123149 59 227 9.6 19.1 0.00 0.00 0.00 90 1010.7
20260506122650 59 252 9.6 19.1 0.00 0.00 0.00 89 1010.8
20260506122148 59 233 8.7 15.6 0.00 0.00 0.00 90 1010.9
20260506121648 58 244 9.6 16.5 0.00 0.00 0.00 90 1011.0
20260506121149 58 238 9.6 17.4 0.00 0.00 0.00 89 1010.9
20260506120650 59 229 8.7 17.4 0.00 0.00 0.00 89 1011.0
20260506120150 59 221 8.7 16.5 0.00 0.00 0.00 90 1010.9
20260506115648 59 229 9.6 15.6 0.00 0.00 0.00 90 1010.8
20260506114648 58 237 9.6 15.6 0.00 0.00 0.00 90 1010.6
20260506113149 58 241 7.8 13.9 0.00 0.00 0.00 90 1010.6
20260506112650 58 264 7.0 13.0 0.00 0.00 0.00 90 1010.7
20260506111649 58 240 7.8 11.3 0.00 0.00 0.00 90 1010.9
20260506111133 57 247 7.8 14.8 0.00 0.00 0.00 90 1010.9
20260506110633 57 261 7.8 14.8 0.00 0.00 0.00 91 1010.8
20260506110134 57 208 7.8 15.6 0.00 0.00 0.00 91 1010.8
20260506105608 57 225 7.8 15.6 0.00 0.00 0.00 91 1010.7
20260506105044 57 224 8.7 14.8 0.00 0.00 0.00 91 1010.7
20260506104545 57 269 8.7 13.9 0.00 0.00 0.00 91 1010.6
20260506103545 57 196 9.6 18.2 0.00 0.00 0.00 91 1010.6
20260506103046 57 229 9.6 20.9 0.00 0.00 0.00 91 1010.6
20260506102545 57 240 9.6 20.9 0.00 0.00 0.00 91 1010.6
20260506102046 56 203 9.6 17.4 0.00 0.00 0.00 91 1010.5
20260506101538 56 221 10.4 17.4 0.00 0.00 0.00 91 1010.5
20260506101035 56 251 10.4 17.4 0.00 0.00 0.00 91 1010.5
20260506100034 56 232 8.7 14.8 0.00 0.00 0.00 91 1010.5
20260506095534 56 221 8.7 16.5 0.00 0.00 0.00 91 1010.6
20260506095036 56 224 8.7 16.5 0.00 0.00 0.00 91 1010.5
20260506094534 56 228 8.7 17.4 0.00 0.00 0.00 91 1010.6
20260506094032 56 224 9.6 17.4 0.00 0.00 0.00 91 1010.5
20260506093533 56 234 8.7 17.4 0.00 0.00 0.00 91 1010.5
20260506093032 56 231 7.8 17.4 0.00 0.00 0.00 91 1010.4
20260506092533 56 234 7.8 17.4 0.00 0.00 0.00 91 1010.5
20260506091530 56 231 7.0 15.6 0.00 0.00 0.00 91 1010.7
20260506091030 56 216 6.1 13.9 0.00 0.00 0.00 91 1010.7
20260506090531 56 246 7.0 13.9 0.00 0.00 0.00 91 1010.8
20260506090025 56 241 7.0 14.8 0.00 0.00 0.00 91 1010.8
20260506085518 57 231 7.8 14.8 0.00 0.00 0.00 91 1010.7
20260506085012 57 271 8.7 17.4 0.00 0.00 0.00 91 1010.8
20260506084507 57 239 8.7 17.4 0.00 0.00 0.00 91 1010.8
20260506083455 57 234 11.3 20.0 0.00 0.00 0.00 91 1010.7
20260506082948 57 229 11.3 20.0 0.00 0.00 0.00 91 1010.7
20260506082442 57 257 10.4 19.1 0.00 0.00 0.00 91 1010.7
20260506081940 57 212 10.4 19.1 0.00 0.00 0.00 91 1010.9
20260506081441 57 253 9.6 18.2 0.00 0.00 0.00 91 1010.8
20260506080440 57 232 8.7 20.0 0.00 0.00 0.00 90 1011.0
20260506073441 57 231 7.8 16.5 0.00 0.00 0.00 90 1011.3
20260506072940 57 245 9.6 17.4 0.00 0.00 0.00 90 1011.2
20260506072441 57 248 9.6 17.4 0.00 0.00 0.00 90 1011.2
20260506071940 57 216 9.6 16.5 0.00 0.00 0.00 90 1011.3
20260506071439 57 228 9.6 17.4 0.00 0.00 0.00 90 1011.3
20260506070940 57 219 8.7 17.4 0.00 0.00 0.00 90 1011.3
20260506070440 57 229 8.7 16.5 0.00 0.00 0.00 90 1011.3
20260506062352 57 224 8.7 13.9 0.00 0.00 0.00 89 1011.2
20260506061846 57 212 8.7 14.8 0.00 0.00 0.00 89 1011.1
20260506061341 58 252 8.7 16.5 0.00 0.00 0.00 89 1011.1
20260506060328 58 263 9.6 15.6 0.00 0.00 0.00 89 1011.1
20260506051240 58 248 9.6 20.9 0.00 0.00 0.00 89 1011.3
20260506050741 58 245 10.4 17.4 0.00 0.00 0.00 89 1011.3
20260506044739 58 286 10.4 20.0 0.00 0.00 0.00 89 1011.4
20260506044240 58 221 10.4 19.1 0.00 0.00 0.00 89 1011.3
20260506043241 58 229 11.3 18.2 0.00 0.00 0.00 89 1011.3
20260506042741 58 269 11.3 18.2 0.00 0.00 0.00 89 1011.3
20260506042240 58 233 10.4 18.2 0.00 0.00 0.00 89 1011.3
20260506041740 58 231 10.4 18.2 0.00 0.00 0.00 89 1011.3
20260506041239 58 255 11.3 18.2 0.00 0.00 0.00 89 1011.3
20260506040741 58 226 11.3 19.1 0.00 0.00 0.00 89 1011.4
20260506040237 58 237 10.4 19.1 0.00 0.00 0.00 89 1011.5
20260506035738 58 219 8.7 20.0 0.00 0.00 0.00 89 1011.4
20260506035239 58 221 8.7 20.0 0.00 0.00 0.00 89 1011.4
20260506034738 58 243 8.7 15.6 0.00 0.00 0.00 89 1011.4
20260506033739 57 223 8.7 17.4 0.00 0.00 0.00 89 1011.6
20260506033239 58 230 8.7 15.6 0.00 0.00 0.00 89 1011.6
20260506032738 58 252 9.6 16.5 0.00 0.00 0.00 89 1011.5
20260506032237 58 232 8.7 16.5 0.00 0.00 0.00 89 1011.4
20260506031738 58 236 8.7 15.6 0.00 0.00 0.00 89 1011.3
20260506031239 58 252 9.6 18.2 0.00 0.00 0.00 89 1011.5
20260506030733 58 230 9.6 18.2 0.00 0.00 0.00 89 1011.5
20260506030234 58 224 8.7 17.4 0.00 0.00 0.00 89 1011.6
20260506025733 58 242 9.6 17.4 0.00 0.00 0.00 89 1011.6
20260506025233 58 226 9.6 17.4 0.00 0.00 0.00 89 1011.5
20260506024233 58 238 8.7 17.4 0.00 0.00 0.00 89 1011.6
20260506023734 58 230 8.7 18.2 0.00 0.00 0.00 89 1011.6
20260506023233 58 230 9.6 18.2 0.00 0.00 0.00 89 1011.6
20260506022735 58 248 8.7 17.4 0.00 0.00 0.00 89 1011.7
20260506022229 58 219 7.8 14.8 0.00 0.00 0.00 89 1011.6
20260506021730 58 239 8.7 14.8 0.00 0.00 0.00 89 1011.6
20260506021229 58 231 9.6 15.6 0.00 0.00 0.00 89 1011.5
20260506020730 58 224 9.6 20.0 0.00 0.00 0.00 89 1011.6
20260506015730 58 214 9.6 17.4 0.00 0.00 0.00 89 1011.4
20260506015229 59 222 9.6 18.2 0.00 0.00 0.00 89 1011.4
20260506014730 59 219 10.4 18.2 0.00 0.00 0.00 89 1011.3
20260506014230 58 201 10.4 16.5 0.00 0.00 0.00 88 1011.2
20260506013729 58 233 10.4 20.0 0.00 0.00 0.00 88 1011.3
20260506012718 58 239 11.3 22.6 0.00 0.00 0.00 88 1011.0
20260506012216 58 231 11.3 22.6 0.00 0.00 0.00 88 1011.1
20260506011215 59 219 12.2 21.7 0.00 0.00 0.00 88 1011.0
20260506010213 59 247 13.9 22.6 0.00 0.00 0.00 87 1010.7
20260506005710 60 224 13.9 22.6 0.00 0.00 0.00 87 1010.9
20260506005209 59 264 13.0 20.0 0.00 0.00 0.00 87 1010.7
20260506004709 59 246 13.0 23.5 0.00 0.00 0.00 87 1010.7
20260506004207 59 229 13.9 23.5 0.00 0.00 0.00 87 1010.7
20260506003708 59 229 13.9 22.6 0.00 0.00 0.00 87 1010.5
20260506002707 59 212 13.0 20.9 0.00 0.00 0.00 87 1010.4
20260506002207 60 220 13.9 22.6 0.00 0.00 0.00 87 1010.4
20260506001709 59 248 13.9 22.6 0.00 0.00 0.00 87 1010.3
20260506001207 59 226 13.9 22.6 0.00 0.00 0.00 87 1010.3
20260506000702 59 226 13.9 23.5 0.00 0.00 0.00 87 1010.3
20260506000156 59 231 13.0 23.5 0.00 0.00 0.00 87 1010.1
20260505235650 59 227 13.0 22.6 0.00 0.00 0.00 87 1010.2
20260505235144 59 236 13.9 21.7 0.00 0.00 0.00 87 1010.1
20260505234638 59 227 14.8 25.2 0.00 0.00 0.00 87 1009.9
20260505234131 59 253 15.6 25.2 0.00 0.00 0.00 87 1009.7
20260505233626 59 245 15.6 25.2 0.00 0.00 0.00 87 1009.6
20260505232614 60 256 14.8 23.5 0.00 0.00 0.00 87 1009.5
20260505232107 60 219 13.9 23.5 0.00 0.00 0.00 86 1009.6
20260505230548 60 231 13.9 24.3 0.00 0.00 0.00 86 1009.4
20260505230041 60 236 13.9 24.3 0.00 0.00 0.00 86 1009.4
20260505225535 60 238 13.0 23.5 0.00 0.00 0.00 86 1009.3
20260505224524 60 239 13.9 23.5 0.00 0.00 0.00 86 1009.2
20260505224018 61 232 13.9 23.5 0.00 0.00 0.00 85 1009.1
20260505223512 61 232 14.8 26.1 0.00 0.00 0.00 85 1009.1
20260505222500 61 200 13.9 24.3 0.00 0.00 0.00 85 1009.1
20260505221954 61 238 13.9 24.3 0.00 0.00 0.00 84 1009.1
20260505221448 61 221 14.8 25.2 0.00 0.00 0.00 84 1008.9
20260505220942 61 215 14.8 25.2 0.00 0.00 0.00 84 1008.9
20260505220435 61 236 13.9 24.3 0.00 0.00 0.00 84 1008.9
20260505215930 61 224 14.8 24.3 0.00 0.00 0.00 85 1009.0
20260505215424 61 226 15.6 25.2 0.00 0.00 0.00 85 1009.1
20260505214917 60 236 16.5 29.5 0.00 0.00 0.00 85 1008.9
20260505213906 61 223 16.5 26.9 0.00 0.00 0.00 85 1008.8
20260505213400 61 238 15.6 24.3 0.00 0.00 0.00 84 1008.7
20260505212853 61 250 15.6 26.1 0.00 0.00 0.00 84 1008.7
20260505212347 61 262 17.4 29.5 0.00 0.00 0.00 84 1008.6
20260505211841 61 210 17.4 29.5 0.00 0.00 0.00 84 1008.6
20260505211336 61 228 15.6 26.1 0.00 0.00 0.00 84 1008.6
20260505210830 61 223 15.6 23.5 0.00 0.00 0.00 84 1008.5
20260505210325 61 243 15.6 23.5 0.00 0.00 0.00 84 1008.5
20260505205817 61 224 16.5 27.8 0.00 0.00 0.00 84 1008.4
20260505205318 62 239 16.5 27.8 0.00 0.00 0.00 83 1008.5
20260505204818 62 242 16.5 26.9 0.00 0.00 0.00 83 1008.5
20260505204320 62 221 15.6 26.9 0.00 0.00 0.00 83 1008.4
20260505203734 62 230 14.8 26.1 0.00 0.00 0.00 83 1008.4
20260505203234 62 222 13.9 26.1 0.00 0.00 0.00 83 1008.5
20260505202234 62 229 13.9 23.5 0.00 0.00 0.00 83 1008.5
20260505201734 62 228 13.0 23.5 0.00 0.00 0.00 83 1008.6
20260505201234 62 226 12.2 21.7 0.00 0.00 0.00 84 1008.7
20260505200734 62 239 12.2 21.7 0.00 0.00 0.00 84 1008.7
20260505200233 62 210 11.3 21.7 0.00 0.00 0.00 84 1008.9
20260505195733 62 226 10.4 17.4 0.00 0.00 0.00 84 1009.1
20260505195229 61 241 11.3 19.1 0.00 0.00 0.00 85 1009.0
20260505194729 61 222 11.3 19.1 0.00 0.00 0.00 84 1009.1
20260505194228 62 230 9.6 19.1 0.00 0.00 0.00 84 1009.3
20260505193702 62 203 8.7 18.2 0.00 0.00 0.00 84 1009.4
20260505192200 63 205 7.8 13.9 0.00 0.00 0.00 84 1009.6
20260505191702 63 200 8.7 14.8 0.00 0.00 0.00 84 1009.7
20260505191202 62 215 8.7 18.2 0.00 0.00 0.00 84 1009.8
20260505190700 62 214 7.0 18.2 0.00 0.00 0.00 84 1009.9
20260505190201 62 224 6.1 12.2 0.00 0.00 0.00 86 1010.0
20260505185702 62 257 7.0 13.0 0.00 0.00 0.00 85 1010.2
20260505185201 62 243 6.1 13.0 0.00 0.00 0.00 85 1010.3
20260505183200 61 236 9.6 15.6 0.00 0.00 0.00 85 1010.6
20260505182201 62 224 10.4 16.5 0.00 0.00 0.00 85 1010.6
20260505181701 62 217 10.4 15.6 0.00 0.00 0.00 85 1010.5
20260505180701 62 226 9.6 15.6 0.00 0.00 0.00 85 1010.6
20260505180202 62 233 8.7 15.6 0.00 0.00 0.00 85 1010.6
20260505175701 62 226 7.8 14.8 0.00 0.00 0.00 86 1010.8
20260505175158 61 217 7.0 13.0 0.00 0.00 0.00 86 1010.8
20260505174658 62 233 7.0 13.0 0.00 0.00 0.00 86 1010.8
20260505174156 62 210 7.0 13.0 0.00 0.00 0.00 87 1010.8
20260505173657 61 274 7.0 13.0 0.00 0.00 0.00 86 1010.8
20260505173157 61 218 6.1 12.2 0.00 0.00 0.00 87 1010.9
20260505172658 60 264 7.0 13.9 0.00 0.00 0.00 87 1010.9
20260505172156 60 228 7.0 13.9 0.00 0.00 0.00 87 1010.9
20260505171658 60 286 7.8 13.0 0.00 0.00 0.00 87 1011.0
20260505170654 61 232 7.0 12.2 0.00 0.00 0.00 86 1011.0
20260505165655 61 231 6.1 11.3 0.00 0.00 0.00 86 1011.1
20260505164655 61 223 7.0 12.2 0.00 0.00 0.00 86 1011.1
20260505163654 62 220 7.0 13.9 0.00 0.00 0.00 86 1011.3